• In Hungary
  • List of Countries
  • For 7 days
  • Water Temperature
  • Satellite Maps
  • Weather Map
  • News
  • Weather Widgets
  • user-avatar
    Login

    Hourly Weather Skrzyszow

    Today, 19 October, Thursday

    Time Temperature Precipitation Wind Pressure Humidity
    00:00 +13°C° 0 mm 1 mps 738 mmHg 82%
    01:00 +13°C° 0 mm 2 mps 738 mmHg 85%
    02:00 +12°C° 0 mm 1 mps 738 mmHg 86%
    03:00 +12°C° 0 mm 1 mps 738 mmHg 87%
    04:00 +12°C° 0 mm 1 mps 738 mmHg 88%
    05:00 +12°C° 0 mm 1 mps 738 mmHg 88%
    06:00 +11°C° 0 mm 1 mps 738 mmHg 88%
    07:00 +11°C° 0 mm 1 mps 738 mmHg 85%
    08:00 +13°C° 0 mm 1 mps 738 mmHg 79%
    09:00 +15°C° 0 mm 1 mps 738 mmHg 73%
    10:00 +16°C° 0 mm 1 mps 739 mmHg 68%
    11:00 +18°C° 0 mm 1 mps 739 mmHg 65%
    12:00 +19°C° 0 mm 1 mps 739 mmHg 62%
    13:00 +20°C° 0 mm 1 mps 739 mmHg 59%
    14:00 +19°C° 0 mm 1 mps 739 mmHg 62%
    15:00 +17°C° 0 mm 0 mps 738 mmHg 66%
    16:00 +16°C° 0 mm 0 mps 738 mmHg 69%
    17:00 +15°C° 0 mm 0 mps 738 mmHg 73%
    18:00 +14°C° 0 mm 0 mps 739 mmHg 77%
    19:00 +13°C° 0 mm 0 mps 739 mmHg 81%
    20:00 +12°C° 0 mm 0 mps 739 mmHg 82%
    21:00 +12°C° 0 mm 0 mps 739 mmHg 83%
    22:00 +13°C° 0 mm 1 mps 739 mmHg 84%
    23:00 +12°C° 0 mm 1 mps 739 mmHg 85%

    Tomorrow, 20 October, Friday

    Time Temperature Precipitation Wind Pressure Humidity
    00:00 +12°C° 0 mm 1 mps 739 mmHg 86%
    01:00 +12°C° 0 mm 1 mps 739 mmHg 87%
    02:00 +12°C° 0 mm 1 mps 739 mmHg 87%
    03:00 +11°C° 0 mm 1 mps 739 mmHg 88%
    04:00 +11°C° 0 mm 1 mps 739 mmHg 88%
    05:00 +11°C° 0 mm 1 mps 739 mmHg 87%
    06:00 +11°C° 0 mm 1 mps 740 mmHg 87%
    07:00 +11°C° 0 mm 1 mps 740 mmHg 87%
    08:00 +13°C° 0 mm 1 mps 740 mmHg 79%
    09:00 +15°C° 0 mm 1 mps 740 mmHg 70%
    10:00 +18°C° 0 mm 1 mps 740 mmHg 62%
    11:00 +19°C° 0 mm 1 mps 740 mmHg 58%
    12:00 +20°C° 0 mm 1 mps 740 mmHg 54%
    13:00 +21°C° 0 mm 1 mps 740 mmHg 50%
    14:00 +20°C° 0 mm 1 mps 740 mmHg 54%
    15:00 +20°C° 0 mm 1 mps 740 mmHg 57%
    16:00 +19°C° 0 mm 1 mps 740 mmHg 61%
    17:00 +18°C° 0 mm 1 mps 740 mmHg 65%
    18:00 +15°C° 0 mm 1 mps 740 mmHg 69%
    19:00 +14°C° 0 mm 1 mps 740 mmHg 73%
    20:00 +14°C° 0 mm 2 mps 740 mmHg 74%
    21:00 +13°C° 0 mm 2 mps 740 mmHg 76%
    22:00 +13°C° 0 mm 2 mps 740 mmHg 78%
    23:00 +13°C° 0 mm 2 mps 740 mmHg 78%

    Day after tomorrow, 21 October, Saturday

    Time Temperature Precipitation Wind Pressure Humidity
    00:00 +13°C° 0 mm 2 mps 740 mmHg 79%
    01:00 +12°C° 0 mm 2 mps 740 mmHg 79%
    02:00 +12°C° 0 mm 2 mps 740 mmHg 80%
    03:00 +12°C° 0 mm 2 mps 740 mmHg 80%
    04:00 +12°C° 0 mm 2 mps 740 mmHg 81%
    05:00 +12°C° 0 mm 2 mps 740 mmHg 81%
    06:00 +12°C° 0 mm 2 mps 740 mmHg 80%
    07:00 +12°C° 0 mm 1 mps 740 mmHg 80%
    08:00 +13°C° 0 mm 1 mps 740 mmHg 77%
    09:00 +14°C° 0 mm 1 mps 740 mmHg 73%
    10:00 +15°C° 0 mm 2 mps 740 mmHg 69%
    11:00 +16°C° 0 mm 2 mps 740 mmHg 68%
    12:00 +17°C° 0 mm 2 mps 740 mmHg 67%
    13:00 +17°C° 0 mm 2 mps 740 mmHg 66%
    14:00 +18°C° 0 mm 1 mps 740 mmHg 69%
    15:00 +16°C° 0 mm 1 mps 739 mmHg 72%
    16:00 +16°C° 0 mm 1 mps 739 mmHg 75%
    17:00 +15°C° 0 mm 1 mps 739 mmHg 77%
    18:00 +15°C° 0 mm 1 mps 739 mmHg 80%
    19:00 +14°C° 0 mm 1 mps 740 mmHg 82%
    20:00 +14°C° 0 mm 1 mps 740 mmHg 82%
    21:00 +14°C° 0 mm 1 mps 740 mmHg 83%
    22:00 +14°C° 0 mm 2 mps 739 mmHg 83%
    23:00 +14°C° 0 mm 2 mps 739 mmHg 83%

    22 October, Sunday

    Time Temperature Precipitation Wind Pressure Humidity
    00:00 +13°C° 0 mm 1 mps 739 mmHg 84%
    01:00 +13°C° 0 mm 1 mps 739 mmHg 84%
    02:00 +13°C° 0.1 mm 2 mps 739 mmHg 84%
    03:00 +13°C° 0.1 mm 2 mps 739 mmHg 85%
    04:00 +13°C° 0.1 mm 2 mps 738 mmHg 85%
    05:00 +13°C° 0.1 mm 2 mps 738 mmHg 85%
    06:00 +13°C° 0.1 mm 2 mps 738 mmHg 86%
    07:00 +13°C° 0.1 mm 2 mps 738 mmHg 86%
    08:00 +13°C° 0.6 mm 2 mps 738 mmHg 86%
    09:00 +14°C° 0.6 mm 2 mps 738 mmHg 86%
    10:00 +14°C° 0.6 mm 2 mps 738 mmHg 85%
    11:00 +13°C° 1.2 mm 2 mps 738 mmHg 87%
    12:00 +13°C° 1.2 mm 2 mps 738 mmHg 89%
    13:00 +12°C° 1.2 mm 3 mps 738 mmHg 91%
    14:00 +11°C° 1 mm 3 mps 738 mmHg 91%
    15:00 +11°C° 1 mm 3 mps 738 mmHg 91%
    16:00 +11°C° 1 mm 3 mps 738 mmHg 91%
    17:00 +10°C° 0.3 mm 3 mps 738 mmHg 91%
    18:00 +10°C° 0.3 mm 3 mps 738 mmHg 91%
    19:00 +10°C° 0.3 mm 2 mps 738 mmHg 91%
    20:00 +10°C° 0.2 mm 2 mps 738 mmHg 91%
    21:00 +10°C° 0.2 mm 2 mps 738 mmHg 91%
    22:00 +10°C° 0.2 mm 2 mps 739 mmHg 91%
    23:00 +10°C° 0.2 mm 2 mps 739 mmHg 91%

    23 October, Monday

    Time Temperature Precipitation Wind Pressure Humidity
    00:00 +10°C° 0.2 mm 2 mps 739 mmHg 91%
    01:00 +9°C° 0.2 mm 2 mps 739 mmHg 91%
    02:00 +9°C° 0.3 mm 2 mps 739 mmHg 91%
    03:00 +9°C° 0.3 mm 2 mps 739 mmHg 90%
    04:00 +9°C° 0.3 mm 3 mps 739 mmHg 89%
    05:00 +9°C° 0.2 mm 3 mps 739 mmHg 89%
    06:00 +8°C° 0.2 mm 2 mps 739 mmHg 89%
    07:00 +8°C° 0.2 mm 2 mps 740 mmHg 89%
    08:00 +8°C° 0.2 mm 3 mps 740 mmHg 87%
    09:00 +9°C° 0.2 mm 3 mps 740 mmHg 84%
    10:00 +8°C° 0.2 mm 4 mps 741 mmHg 82%
    11:00 +8°C° 0.1 mm 4 mps 741 mmHg 80%
    12:00 +8°C° 0.1 mm 4 mps 741 mmHg 79%
    13:00 +10°C° 0.1 mm 4 mps 741 mmHg 77%
    14:00 +10°C° 0.1 mm 4 mps 741 mmHg 79%
    15:00 +9°C° 0.1 mm 3 mps 741 mmHg 80%
    16:00 +9°C° 0.1 mm 3 mps 742 mmHg 82%
    17:00 +9°C° 0.1 mm 3 mps 742 mmHg 84%
    18:00 +9°C° 0.1 mm 3 mps 742 mmHg 86%
    19:00 +8°C° 0.1 mm 3 mps 743 mmHg 88%
    20:00 +8°C° 0.1 mm 2 mps 743 mmHg 89%
    21:00 +8°C° 0.1 mm 2 mps 743 mmHg 90%
    22:00 +8°C° 0.1 mm 2 mps 743 mmHg 91%
    23:00 +8°C° 0.1 mm 2 mps 743 mmHg 91%

    24 October, Tuesday

    Time Temperature Precipitation Wind Pressure Humidity
    00:00 +8°C° 0.1 mm 2 mps 743 mmHg 92%
    01:00 +8°C° 0.1 mm 2 mps 743 mmHg 93%
    02:00 +8°C° 0.1 mm 2 mps 744 mmHg 93%
    03:00 +8°C° 0.1 mm 2 mps 744 mmHg 93%
    04:00 +8°C° 0.1 mm 2 mps 744 mmHg 93%
    05:00 +8°C° 0.1 mm 2 mps 744 mmHg 94%
    06:00 +8°C° 0.1 mm 2 mps 744 mmHg 94%
    07:00 +8°C° 0.1 mm 2 mps 744 mmHg 94%
    08:00 +8°C° 0 mm 2 mps 745 mmHg 91%
    09:00 +9°C° 0 mm 3 mps 745 mmHg 87%
    10:00 +9°C° 0 mm 3 mps 746 mmHg 84%
    11:00 +10°C° 0 mm 3 mps 746 mmHg 82%
    12:00 +10°C° 0 mm 3 mps 746 mmHg 80%
    13:00 +10°C° 0 mm 3 mps 746 mmHg 78%
    14:00 +10°C° 0 mm 3 mps 746 mmHg 80%
    15:00 +10°C° 0 mm 3 mps 747 mmHg 82%
    16:00 +10°C° 0 mm 2 mps 747 mmHg 85%
    17:00 +9°C° 0 mm 2 mps 747 mmHg 87%
    18:00 +9°C° 0 mm 2 mps 748 mmHg 88%
    19:00 +10°C° 0 mm 1 mps 748 mmHg 90%
    20:00 +9°C° 0 mm 1 mps 748 mmHg 91%
    21:00 +9°C° 0 mm 1 mps 749 mmHg 91%
    22:00 +9°C° 0 mm 1 mps 749 mmHg 92%
    23:00 +9°C° 0 mm 1 mps 749 mmHg 92%
    Show more